This is the latest recevied weather packets stored in our database for station/object DL1NER. If no packets are shown the sender has not sent any weather packets the latest 10 day(s).
| Time | Temp. | Humidity | Pressure | Rain* | Wind** | Luminosity | Snow |
|---|---|---|---|---|---|---|---|
| 1777258810 | 0.56° C | 73% | 1023.5 hPa | 0 mm | - | 0 W/m² | - |
| 1777258210 | 1.11° C | 72% | 1023.4 hPa | 0 mm | - | 0 W/m² | - |
| 1777257610 | 1.11° C | 72% | 1023.6 hPa | 0 mm | - | 0 W/m² | - |
| 1777257010 | 1.11° C | 71% | 1023.5 hPa | 0 mm | - | 0 W/m² | - |
| 1777256410 | 1.11° C | 71% | 1023.5 hPa | 0 mm | - | 0 W/m² | - |
| 1777255811 | 1.67° C | 71% | 1023.5 hPa | 0 mm | - | 0 W/m² | - |
| 1777255210 | 1.67° C | 71% | 1023.5 hPa | 0 mm | - | 0 W/m² | - |
| 1777254610 | 1.67° C | 71% | 1023.6 hPa | 0 mm | - | 0 W/m² | - |
| 1777254010 | 1.67° C | 70% | 1023.7 hPa | 0 mm | - | 0 W/m² | - |
| 1777253409 | 1.67° C | 70% | 1023.6 hPa | 0 mm | - | 0 W/m² | - |
| 1777252810 | 2.22° C | 69% | 1023.7 hPa | 0 mm | - | 0 W/m² | - |
| 1777252209 | 2.22° C | 69% | 1023.8 hPa | 0 mm | - | 0 W/m² | - |
| 1777251610 | 2.22° C | 69% | 1023.8 hPa | 0 mm | - | 0 W/m² | - |
| 1777251009 | 2.22° C | 69% | 1023.8 hPa | 0 mm | - | 0 W/m² | - |
| 1777250409 | 2.22° C | 68% | 1023.8 hPa | 0 mm | - | 0 W/m² | - |
| 1777249809 | 2.78° C | 68% | 1023.9 hPa | 0 mm | - | 0 W/m² | - |
| 1777249224 | 2.78° C | 68% | 1023.9 hPa | 0 mm | - | 0 W/m² | - |
| 1777248610 | 2.78° C | 68% | 1024 hPa | 0 mm | - | 0 W/m² | - |
| 1777248010 | 3.33° C | 66% | 1023.8 hPa | 0 mm | - | 0 W/m² | - |
| 1777247409 | 3.33° C | 66% | 1023.9 hPa | 0 mm | - | 0 W/m² | - |
| 1777246809 | 3.33° C | 66% | 1024 hPa | 0 mm | - | 0 W/m² | - |
| 1777246209 | 3.33° C | 66% | 1024 hPa | 0 mm | - | 0 W/m² | - |
| 1777245608 | 3.33° C | 66% | 1023.9 hPa | 0 mm | - | 0 W/m² | - |
| 1777244413 | 3.89° C | 65% | 1023.9 hPa | 0 mm | - | 0 W/m² | - |
| 1777243813 | 3.89° C | 64% | 1023.9 hPa | 0 mm | - | 0 W/m² | - |
* Rain latest hour (hover to see other rain measurements)
** Current wind speed in m/s (hover to see current wind gust speed)